CW5619 Weather Reports


time (UTC)temp
F
wind
direction
speed
knots
gust
knots
rain 1hr
in
rain 24hr
in
rain mn
in
humidity
%
barometer
mb
20260508192402 92 301 2.6 8.7 0.00 0.00 0.00 14 1012.8
20260508191903 92 228 1.7 8.7 0.00 0.00 0.00 14 1012.9
20260508191403 93 345 2.6 7.8 0.00 0.00 0.00 15 1012.9
20260508190903 93 161 1.7 5.2 0.00 0.00 0.00 14 1013.1
20260508190403 92 221 1.7 6.1 0.00 0.00 0.00 14 1013.2
20260508185902 93 209 2.6 7.8 0.00 0.00 0.00 14 1013.1
20260508185403 92 320 1.7 8.7 0.00 0.00 0.00 15 1013.1
20260508184903 91 303 2.6 8.7 0.00 0.00 0.00 15 1013.2
20260508184403 91 223 2.6 8.7 0.00 0.00 0.00 14 1013.2
20260508183402 90 254 0.9 7.8 0.00 0.00 0.00 16 1013.4
20260508182903 90 168 2.6 6.1 0.00 0.00 0.00 15 1013.5
20260508182402 89 291 1.7 7.0 0.00 0.00 0.00 17 1013.5
20260508181903 88 45 1.7 7.0 0.00 0.00 0.00 17 1013.6
20260508181402 88 225 1.7 6.1 0.00 0.00 0.00 16 1013.6
20260508180902 88 239 1.7 4.3 0.00 0.00 0.00 17 1013.7
20260508180403 88 215 1.7 2.6 0.00 0.00 0.00 16 1013.8
20260508175904 88 184 1.7 2.6 0.00 0.00 0.00 17 1013.9
20260508175403 87 185 0.9 2.6 0.00 0.00 0.00 17 1014.0
20260508174903 85 77 1.7 2.6 0.00 0.00 0.00 18 1014.0
20260508174403 86 119 1.7 2.6 0.00 0.00 0.00 17 1014.0
20260508172902 84 55 1.7 4.3 0.00 0.00 0.00 19 1014.1
20260508172403 84 199 1.7 4.3 0.00 0.00 0.00 19 1014.2
20260508171902 84 234 0.9 2.6 0.00 0.00 0.00 19 1014.3
20260508171403 83 76 0.9 2.6 0.00 0.00 0.00 19 1014.3
20260508170903 83 163 0.9 2.6 0.00 0.00 0.00 20 1014.4
20260508165903 84 237 0.9 2.6 0.00 0.00 0.00 19 1014.5
20260508164903 81 231 0.0 2.6 0.00 0.00 0.00 22 1014.6
20260508163902 81 200 1.7 2.6 0.00 0.00 0.00 21 1014.6
20260508163402 81 66 0.9 2.6 0.00 0.00 0.00 23 1014.7
20260508162903 80 195 0.9 2.6 0.00 0.00 0.00 22 1014.7
20260508162403 80 192 0.9 2.6 0.00 0.00 0.00 23 1014.7
20260508161903 79 147 0.9 4.3 0.00 0.00 0.00 24 1014.8
20260508161402 79 218 0.9 4.3 0.00 0.00 0.00 24 1014.7
20260508160903 79 95 1.7 2.6 0.00 0.00 0.00 24 1014.8
20260508155903 77 176 0.9 2.6 0.00 0.00 0.00 26 1014.7
20260508155402 76 204 0.9 2.6 0.00 0.00 0.00 26 1014.7
20260508154903 76 234 0.9 4.3 0.00 0.00 0.00 27 1014.8
20260508153903 75 150 0.9 4.3 0.00 0.00 0.00 28 1014.8
20260508153403 74 190 1.7 4.3 0.00 0.00 0.00 28 1014.9
20260508152904 74 158 1.7 4.3 0.00 0.00 0.00 29 1014.9
20260508152402 73 187 0.9 2.6 0.00 0.00 0.00 30 1014.9
20260508151903 73 194 1.7 5.2 0.00 0.00 0.00 29 1014.9
20260508151403 72 115 1.7 5.2 0.00 0.00 0.00 30 1014.9
20260508150403 71 195 0.9 2.6 0.00 0.00 0.00 31 1014.9
20260508145902 71 109 0.9 2.6 0.00 0.00 0.00 32 1014.9
20260508145402 70 167 0.9 4.3 0.00 0.00 0.00 32 1014.9
20260508144403 70 199 1.7 4.3 0.00 0.00 0.00 33 1015.0
20260508143403 69 186 1.7 4.3 0.00 0.00 0.00 34 1014.9
20260508142904 69 178 0.9 4.3 0.00 0.00 0.00 34 1014.9
20260508142403 68 147 0.9 2.6 0.00 0.00 0.00 36 1014.9
20260508141903 68 160 0.9 2.6 0.00 0.00 0.00 35 1014.8
20260508141403 67 131 0.9 5.2 0.00 0.00 0.00 35 1014.7
20260508140903 67 93 1.7 5.2 0.00 0.00 0.00 36 1014.6
20260508135902 66 96 1.7 5.2 0.00 0.00 0.00 37 1014.6
20260508133903 62 88 0.9 1.7 0.00 0.00 0.00 44 1014.5
20260508133403 62 90 0.0 2.6 0.00 0.00 0.00 45 1014.5
20260508132403 60 89 0.9 2.6 0.00 0.00 0.00 48 1014.4
20260508131902 60 80 0.9 1.7 0.00 0.00 0.00 49 1014.3
20260508131403 59 86 0.9 1.7 0.00 0.00 0.00 50 1014.2
20260508130903 59 89 0.9 1.7 0.00 0.00 0.00 49 1014.2
20260508125903 58 67 0.9 1.7 0.00 0.00 0.00 49 1014.1
20260508125403 58 81 0.0 1.7 0.00 0.00 0.00 49 1014.0
20260508124903 58 81 0.0 1.7 0.00 0.00 0.00 49 1013.9
20260508123902 58 80 0.0 0.9 0.00 0.00 0.00 49 1013.8
20260508123403 58 80 0.0 1.7 0.00 0.00 0.00 49 1013.8
20260508122904 58 80 0.0 1.7 0.00 0.00 0.00 48 1013.8
20260508122403 58 80 0.0 1.7 0.00 0.00 0.00 48 1013.7
20260508121903 58 82 0.9 1.7 0.00 0.00 0.00 48 1013.6
20260508121403 58 97 0.0 1.7 0.00 0.00 0.00 48 1013.6
20260508120902 58 98 0.0 1.7 0.00 0.00 0.00 48 1013.5
20260508120403 58 97 0.9 2.6 0.00 0.00 0.00 47 1013.5
20260508115903 59 93 0.9 2.6 0.00 0.00 0.00 47 1013.5
20260508115403 59 98 0.9 2.6 0.00 0.00 0.00 47 1013.4
20260508114903 59 105 0.0 1.7 0.00 0.00 0.00 47 1013.4
20260508114403 59 95 0.9 2.6 0.00 0.00 0.00 47 1013.5
20260508113903 59 87 0.9 2.6 0.00 0.00 0.00 46 1013.5
20260508113403 59 81 0.0 1.7 0.00 0.00 0.00 46 1013.4
20260508112903 59 78 0.0 1.7 0.00 0.00 0.00 47 1013.4
20260508112404 59 78 0.0 0.9 0.00 0.00 0.00 46 1013.3
20260508110903 60 78 0.9 2.6 0.00 0.00 0.00 45 1013.3
20260508110403 60 83 0.9 2.6 0.00 0.00 0.00 45 1013.1
20260508105903 60 97 0.0 1.7 0.00 0.00 0.00 45 1013.1
20260508105403 60 91 0.0 1.7 0.00 0.00 0.00 45 1013.1
20260508104903 60 85 0.0 1.7 0.00 0.00 0.00 45 1013.2
20260508104403 60 85 0.0 1.7 0.00 0.00 0.00 45 1013.2
20260508103902 60 84 0.9 1.7 0.00 0.00 0.00 45 1013.1
20260508102903 61 84 0.9 2.6 0.00 0.00 0.00 45 1013.1
20260508102403 61 77 0.0 1.7 0.00 0.00 0.00 45 1013.1
20260508101902 61 64 0.9 1.7 0.00 0.00 0.00 44 1013.1
20260508101403 61 87 0.0 0.9 0.00 0.00 0.00 44 1013.1
20260508100903 61 87 0.0 0.9 0.00 0.00 0.00 43 1013.1
20260508100402 61 87 0.0 0.9 0.00 0.00 0.00 43 1013.0
20260508095903 62 87 0.0 1.7 0.00 0.00 0.00 42 1013.1
20260508095403 62 87 0.0 1.7 0.00 0.00 0.00 42 1012.9
20260508094902 62 87 0.0 1.7 0.00 0.00 0.00 42 1012.9
20260508094403 62 72 0.9 1.7 0.00 0.00 0.00 42 1012.9
20260508093403 62 98 0.9 2.6 0.00 0.00 0.00 41 1012.9
20260508091903 63 69 0.0 1.7 0.00 0.00 0.00 40 1012.9
20260508090903 63 88 0.0 2.6 0.00 0.00 0.00 39 1013.0
20260508090402 63 91 0.0 2.6 0.00 0.00 0.00 40 1013.0
20260508085903 64 96 0.9 1.7 0.00 0.00 0.00 40 1012.9
20260508085403 64 61 0.0 1.7 0.00 0.00 0.00 39 1013.0
20260508084903 64 61 0.9 1.7 0.00 0.00 0.00 38 1013.0
20260508084404 65 55 0.9 1.7 0.00 0.00 0.00 38 1013.1
20260508083904 65 54 0.0 1.7 0.00 0.00 0.00 38 1013.1
20260508083403 65 46 0.9 1.7 0.00 0.00 0.00 38 1013.1
20260508082903 65 45 0.0 2.6 0.00 0.00 0.00 38 1013.2
20260508082402 65 71 0.9 2.6 0.00 0.00 0.00 38 1013.3
20260508081902 65 71 0.0 1.7 0.00 0.00 0.00 38 1013.3
20260508081402 65 72 0.9 1.7 0.00 0.00 0.00 37 1013.3
20260508080902 65 64 0.9 1.7 0.00 0.00 0.00 38 1013.2
20260508080404 65 59 0.9 1.7 0.00 0.00 0.00 38 1013.3
20260508075903 65 81 0.0 0.0 0.00 0.00 0.00 39 1013.3
20260508075404 65 81 0.0 0.0 0.00 0.00 0.00 40 1013.4
20260508074903 65 81 0.0 0.0 0.00 0.00 0.00 42 1013.5
20260508074403 65 81 0.0 0.0 0.00 0.00 0.00 41 1013.5
20260508073903 66 81 0.0 0.0 0.00 0.00 0.00 38 1013.6
20260508073402 66 81 0.0 0.0 0.00 0.00 0.00 38 1013.7
20260508072904 66 81 0.0 0.0 0.00 0.00 0.00 38 1013.7
20260508071903 67 81 0.0 0.0 0.00 0.00 0.00 37 1013.6
20260508071403 67 81 0.0 0.0 0.00 0.00 0.00 36 1013.7
20260508070903 67 81 0.0 0.0 0.00 0.00 0.00 35 1013.6
20260508070402 68 81 0.0 0.0 0.00 0.00 0.00 34 1013.7
20260508065904 68 81 0.0 0.0 0.00 0.00 0.00 33 1013.6
20260508065403 68 81 0.0 0.0 0.00 0.00 0.00 33 1013.6
20260508064903 69 81 0.0 0.0 0.00 0.00 0.00 32 1013.6
20260508064402 69 81 0.0 0.0 0.00 0.00 0.00 32 1013.6
20260508063903 69 81 0.0 0.0 0.00 0.00 0.00 32 1013.7
20260508063403 69 81 0.0 0.9 0.00 0.00 0.00 32 1013.7
20260508062903 69 81 0.0 0.9 0.00 0.00 0.00 32 1013.7
20260508062402 70 81 0.0 0.9 0.00 0.00 0.00 31 1013.8
20260508061904 70 81 0.0 0.9 0.00 0.00 0.00 30 1013.8
20260508061403 70 81 0.0 0.9 0.00 0.00 0.00 30 1013.8
20260508060904 71 81 0.0 0.9 0.00 0.00 0.00 29 1013.8
20260508055903 71 82 0.0 2.6 0.00 0.00 0.00 28 1013.8
20260508054902 71 61 0.9 1.7 0.00 0.00 0.00 29 1013.8
20260508054403 72 61 0.0 0.9 0.00 0.00 0.00 28 1013.9
20260508053903 72 61 0.0 0.9 0.00 0.00 0.00 28 1013.9
20260508053403 73 61 0.0 0.9 0.00 0.00 0.00 26 1013.8
20260508052902 73 61 0.0 1.7 0.00 0.00 0.00 26 1013.7
20260508052404 73 61 0.0 1.7 0.00 0.00 0.00 25 1013.7
20260508051903 73 64 0.9 1.7 0.00 0.00 0.00 25 1013.7
20260508051402 73 67 0.9 1.7 0.00 0.00 0.00 26 1013.7
20260508045402 75 61 0.0 1.7 0.00 0.00 0.00 25 1013.3
20260508044402 77 70 0.9 2.6 0.00 0.00 0.00 22 1013.2
20260508043903 78 82 0.9 2.6 0.00 0.00 0.00 20 1013.2
20260508042903 78 163 0.0 4.3 0.00 0.00 0.00 19 1013.0
20260508042402 79 201 1.7 7.0 0.00 0.00 0.00 19 1013.0
20260508041902 79 241 1.7 8.7 0.00 0.00 0.00 19 1012.9
20260508041404 79 224 3.5 8.7 0.00 0.00 0.00 19 1012.8
20260508040403 79 238 4.3 8.7 0.00 0.00 0.00 19 1012.8
20260508035904 79 228 2.6 7.0 0.00 0.00 0.00 18 1012.6
20260508035403 79 244 2.6 7.0 0.00 0.00 0.00 18 1012.6
20260508034902 80 235 3.5 7.0 0.00 0.00 0.00 18 1012.6
20260508034403 80 224 2.6 7.0 0.00 0.00 0.00 18 1012.5
20260508033902 80 221 3.5 7.8 0.00 0.00 0.00 18 1012.3
20260508033402 80 218 0.9 7.8 0.00 0.00 0.00 18 1012.3
20260508032904 80 258 0.0 4.3 0.00 0.00 0.00 17 1012.0
20260508032403 80 200 1.7 4.3 0.00 0.00 0.00 17 1011.9
20260508031903 80 169 0.9 6.1 0.00 0.00 0.00 17 1011.9
20260508031403 80 219 0.9 6.1 0.00 0.00 0.00 17 1011.8
20260508025902 81 235 1.7 5.2 0.00 0.00 0.00 16 1011.4
20260508025403 82 248 0.9 7.0 0.00 0.00 0.00 16 1011.3
20260508024903 82 240 2.6 7.0 0.00 0.00 0.00 15 1011.2
20260508023903 83 248 1.7 6.1 0.00 0.00 0.00 12 1011.0
20260508023402 83 221 0.9 6.1 0.00 0.00 0.00 12 1010.8
20260508022903 83 247 1.7 6.1 0.00 0.00 0.00 12 1010.7
20260508022402 84 232 2.6 6.1 0.00 0.00 0.00 12 1010.6
20260508021403 84 233 2.6 7.0 0.00 0.00 0.00 12 1010.5
20260508020903 85 219 0.9 7.0 0.00 0.00 0.00 12 1010.4
20260508020403 85 223 2.6 7.0 0.00 0.00 0.00 12 1010.4
20260508015903 85 239 1.7 7.0 0.00 0.00 0.00 12 1010.2
20260508015403 85 240 2.6 7.0 0.00 0.00 0.00 12 1010.2
20260508014903 86 217 1.7 8.7 0.00 0.00 0.00 12 1010.1
20260508014403 86 208 2.6 8.7 0.00 0.00 0.00 11 1010.1
20260508013403 86 188 1.7 6.1 0.00 0.00 0.00 11 1010.0
20260508012903 87 216 2.6 6.1 0.00 0.00 0.00 11 1009.9
20260508012403 87 204 0.9 7.0 0.00 0.00 0.00 11 1009.9
20260508011902 87 193 2.6 7.8 0.00 0.00 0.00 11 1009.9
20260508011403 87 259 1.7 7.8 0.00 0.00 0.00 11 1009.9
20260508010903 87 275 1.7 8.7 0.00 0.00 0.00 11 1009.9
20260508010403 88 224 2.6 10.4 0.00 0.00 0.00 11 1009.9
20260508005903 88 191 2.6 10.4 0.00 0.00 0.00 11 1009.7
20260508005402 88 224 4.3 10.4 0.00 0.00 0.00 11 1009.6
20260508004903 88 214 2.6 7.0 0.00 0.00 0.00 11 1009.6
20260508004402 88 293 1.7 7.0 0.00 0.00 0.00 11 1009.5
20260508003903 89 260 2.6 8.7 0.00 0.00 0.00 11 1009.6
20260508003403 89 337 1.7 8.7 0.00 0.00 0.00 11 1009.5
20260508002902 89 248 4.3 8.7 0.00 0.00 0.00 11 1009.5
20260508001403 89 84 2.6 7.8 0.00 0.00 0.00 11 1009.5
20260508000405 90 305 3.5 7.8 0.00 0.00 0.00 11 1009.6
20260507235402 90 252 1.7 6.1 0.00 0.00 0.00 11 1009.4
20260507234903 90 223 2.6 7.0 0.00 0.00 0.00 11 1009.4
20260507234403 90 268 1.7 8.7 0.00 0.00 0.00 11 1009.4
20260507233903 90 198 2.6 8.7 0.00 0.00 0.00 12 1009.4
20260507233402 90 296 3.5 8.7 0.00 0.00 0.00 12 1009.4
20260507232903 90 190 1.7 8.7 0.00 0.00 0.00 12 1009.4
20260507232403 90 257 0.9 2.6 0.00 0.00 0.00 12 1009.6
20260507231903 90 23 1.7 8.7 0.00 0.00 0.00 12 1009.5
20260507231403 91 58 1.7 8.7 0.00 0.00 0.00 12 1009.6
20260507230903 91 323 2.6 8.7 0.00 0.00 0.00 12 1009.6
20260507230403 91 308 2.6 10.4 0.00 0.00 0.00 12 1009.6
20260507225902 91 236 5.2 10.4 0.00 0.00 0.00 11 1009.5
20260507225403 91 209 4.3 13.0 0.00 0.00 0.00 12 1009.6
20260507224903 92 217 2.6 13.0 0.00 0.00 0.00 12 1009.8
20260507224403 92 208 1.7 4.3 0.00 0.00 0.00 12 1009.6
20260507223903 91 345 1.7 8.7 0.00 0.00 0.00 12 1009.7
20260507223403 92 207 1.7 8.7 0.00 0.00 0.00 11 1009.7
20260507222903 92 221 2.6 8.7 0.00 0.00 0.00 12 1009.8
20260507222403 92 86 2.6 10.4 0.00 0.00 0.00 12 1009.9
20260507221903 92 276 1.7 10.4 0.00 0.00 0.00 12 1010.0
20260507221403 93 200 2.6 7.8 0.00 0.00 0.00 11 1010.0
20260507220903 93 267 1.7 7.8 0.00 0.00 0.00 11 1010.1
20260507220403 92 29 1.7 7.8 0.00 0.00 0.00 12 1010.2
20260507215902 91 13 4.3 7.8 0.00 0.00 0.00 12 1010.1
20260507215402 92 91 1.7 7.0 0.00 0.00 0.00 12 1010.3
20260507214904 91 222 2.6 7.0 0.00 0.00 0.00 12 1010.2
20260507214403 90 191 1.7 6.1 0.00 0.00 0.00 13 1010.3
20260507213903 90 229 2.6 7.8 0.00 0.00 0.00 13 1010.4
20260507213403 90 234 1.7 8.7 0.00 0.00 0.00 13 1010.4
20260507212902 92 229 2.6 8.7 0.00 0.00 0.00 12 1010.6
20260507212403 92 234 2.6 7.0 0.00 0.00 0.00 12 1010.7
20260507211903 92 71 1.7 7.8 0.00 0.00 0.00 12 1010.7
20260507211403 92 187 2.6 7.8 0.00 0.00 0.00 13 1010.9
20260507210902 92 226 2.6 7.8 0.00 0.00 0.00 12 1010.9
20260507210402 92 2 3.5 10.4 0.00 0.00 0.00 12 1011.1
20260507205903 91 314 2.6 10.4 0.00 0.00 0.00 12 1011.0
20260507205402 91 197 4.3 7.8 0.00 0.00 0.00 11 1011.0
20260507204404 90 217 2.6 8.7 0.00 0.00 0.00 11 1011.1
20260507203903 90 236 2.6 6.1 0.00 0.00 0.00 11 1011.3
20260507203403 90 240 1.7 7.0 0.00 0.00 0.00 11 1011.4
20260507202904 91 238 2.6 10.4 0.00 0.00 0.00 11 1011.4
20260507202402 92 215 3.5 10.4 0.00 0.00 0.00 11 1011.4
20260507201902 90 2 1.7 8.7 0.00 0.00 0.00 11 1011.5
20260507201403 91 90 1.7 8.7 0.00 0.00 0.00 11 1011.7
20260507200904 90 244 1.7 7.8 0.00 0.00 0.00 11 1011.6
20260507195903 90 201 1.7 8.7 0.00 0.00 0.00 10 1011.7
20260507195403 90 228 3.5 8.7 0.00 0.00 0.00 11 1011.8
20260507193903 90 226 2.6 5.2 0.00 0.00 0.00 11 1012.0
20260507192903 90 242 0.9 2.6 0.00 0.00 0.00 11 1012.2